Tracking 27124 objects as of 31-Mar-2023
HD Live streaming from Space Station
objects crossing your sky now

INTELSAT 2 (PAS 2)

Track INTELSAT 2 (PAS 2) now!
INTELSAT 2 (PAS 2) is classified as:


NORAD ID: 23175
Int'l Code: 1994-040A
Perigee: 36,066.9 km
Apogee: 36,128.7 km
Inclination: 10.2 °
Period: 1,451.7 minutes
Semi major axis: 42468 km
RCS: 6.3096 m2 (large)
Launch date: July 8, 1994
Source: United States (US)
Launch site: FRENCH GUIANA (FRGUI)

12 Ku-band; Asia-Pacific.
Your satellite tracking list
Your tracking list is empty




NASA's NSSDC Master Catalog

Two Line Element Set (TLE):
1 23175U 94040A   23089.65328170 -.00000259  00000-0  00000-0 0  9996
2 23175  10.1929  43.1600 0007273  10.2444 172.1831  0.99196897103993
Source of the keplerian elements: AFSPC